COSMOS 2058

Last updated on Sun Jun 21 2026 00:02:15 GMT+0000 (Coordinated Universal Time)

1 20465U 90010A 26171.44438716 .00003199 00000+0 18442-3 0 9994 2 20465 82.4691 306.1427 0008856 347.7217 12.3796 15.12035181957769
UTC large
Height (km)
Speed (km/s)
/
Latitude / Longitude
Inclination (degrees)
Orbital Period (minutes)
Azimuth
Elevation
Range (km)
Doppler Factor

Next 0 passes for location: London (51.5072 / 0.1276)

No passes found over London.
COSMOS 2058